{"data":{"norad_id":50481,"intl_designator":"2021-132N","name":"ONEWEB-0401","alt_names":[],"object_type":"PAYLOAD","status":"ACTIVE","operator":null,"country":"UK","launch_date":"2021-12-27","launch_site_code":"TYMSC","launch_vehicle":null,"mission":null,"orbit_class":"UNKNOWN","rcs_meters":null,"size_class":null,"mass_kg":null,"dimensions":null,"purposes":["comms"],"wikipedia_slug":null,"has_3d_model":false,"image_url":null,"decayed_at":null,"tle_current":{"epoch":"2026-05-25T01:31:43.095936Z","epoch_age_seconds":72842,"freshness":"FRESH","line1":"1 50481U 21132N   26145.06369324 -.00000032  00000+0 -11353-3 0  9990","line2":"2 50481  87.9171 340.0429 0001863  81.0037 279.1306 13.18687666218564","mean_motion":13.18687666,"eccentricity":0.0001863,"inclination_deg":87.9171,"raan_deg":340.0429,"arg_perigee_deg":81.0037,"mean_anomaly_deg":279.1306,"bstar":-0.00011353,"rev_number":21856,"period_min":109.19947438107,"perigee_km":1188.3268579271,"apogee_km":1191.1466476874,"semimajor_km":7567.8737528072,"source":"CELESTRAK","updated_at":"2026-05-25T13:38:22.530507Z"}}}